Weather History for Watertown, WI

Change the Weather History Date:

Monday, November 26, 2012

  Actual Average Record
Temperature  
Mean Temperature 23 °F -  
Max Temperature 30 °F 39 °F 59 °F (1927)
Min Temperature 14 °F 26 °F -1 °F (1977)
Degree Days  
Heating Degree Days 42    
Moisture  
Dew Point 14 °F    
Average Humidity 67    
Maximum Humidity 83    
Minimum Humidity 45    
Precipitation  
Precipitation 0.00 in - - ()
Sea Level Pressure  
Sea Level Pressure 30.23 in    
Wind  
Wind Speed 5 mph (NW)    
Max Wind Speed 13 mph    
Max Gust Speed 16 mph    
Visibility 10 miles    
Events      
Averages and records for this station are not official NWS values.
T = Trace of Precipitation, MM = Missing Value Source: NWS Daily Summary

Daily Weather History Graph

Daily Weather History Graph

Search for Another Location

Airport:

Trip Planner

Search our weather history database for the weather conditions in past years. The results will help you decide how hot, cold, wet, or windy it might be!

Date:

Astronomy

Nov. 26, 2012 Rise Set
Actual Time 7:01 AM CST 4:22 PM CST
Civil Twilight 6:30 AM CST 4:54 PM CST
Nautical Twilight 5:55 AM CST 5:29 PM CST
Astronomical Twilight 5:21 AM CST 6:03 PM CST
Moon 3:16 PM CST (11/26) 5:10 AM CST (11/26)
Length of Visible Light 10h 23m
Length of Day
9h 20m
Waxing Gibbous, 97% of the Moon is Illuminated
Nov 26
Waxing Gibbous
Nov 28
Full
Dec 6
Last Quarter
Dec 13
New
Dec 19
First Quarter

Hourly Weather History & Observations

Time (CST) Temp. Windchill Dew Point Humidity Pressure Visibility Wind Dir Wind Speed Gust Speed Precip Events Conditions
12:15 AM 25.3 °F 16.7 °F 13.6 °F 61% 30.09 in 10.0 mi NW 8.1 mph - N/A   Clear
12:35 AM 24.6 °F 16.7 °F 13.8 °F 64% 30.09 in 10.0 mi NW 6.9 mph - N/A   Clear
12:55 AM 23.9 °F 18.0 °F 13.6 °F 65% 30.09 in 10.0 mi NW 4.6 mph - N/A   Clear
1:15 AM 23.7 °F 16.6 °F 14.0 °F 66% 30.10 in 10.0 mi NW 5.8 mph - N/A   Clear
1:35 AM 22.8 °F 16.7 °F 14.0 °F 69% 30.11 in 10.0 mi NW 4.6 mph - N/A   Clear
1:55 AM 22.8 °F 18.2 °F 14.0 °F 69% 30.11 in 10.0 mi WNW 3.5 mph - N/A   Clear
2:15 AM 23.0 °F 18.4 °F 14.0 °F 68% 30.11 in 10.0 mi WNW 3.5 mph - N/A   Clear
2:35 AM 22.8 °F - 14.4 °F 70% 30.11 in 10.0 mi Calm Calm - N/A   Clear
2:55 AM 20.7 °F - 14.0 °F 75% 30.12 in 10.0 mi Calm Calm - N/A   Clear
3:15 AM 21.2 °F - 13.8 °F 73% 30.12 in 10.0 mi Calm Calm - N/A   Clear
3:35 AM 19.2 °F - 13.3 °F 78% 30.13 in 10.0 mi Calm Calm - N/A   Clear
3:55 AM 19.4 °F - 13.8 °F 79% 30.13 in 10.0 mi Calm Calm - N/A   Mostly Cloudy
4:15 AM 20.7 °F - 14.5 °F 77% 30.14 in 10.0 mi Calm Calm - N/A   Overcast
4:35 AM 22.1 °F - 16.5 °F 79% 30.14 in 10.0 mi Calm Calm - N/A   Overcast
4:55 AM 22.8 °F - 17.1 °F 79% 30.14 in 10.0 mi Calm Calm - N/A   Overcast
5:15 AM 23.0 °F - 18.0 °F 81% 30.14 in 10.0 mi Calm Calm - N/A   Overcast
5:35 AM 23.2 °F 18.7 °F 18.5 °F 82% 30.16 in 10.0 mi SW 3.5 mph - N/A   Overcast
5:55 AM 23.5 °F - 18.9 °F 82% 30.15 in 10.0 mi Calm Calm - N/A   Overcast
6:15 AM 23.9 °F - 19.0 °F 82% 30.16 in 10.0 mi Calm Calm - N/A   Overcast
6:35 AM 24.1 °F - 19.6 °F 83% 30.16 in 10.0 mi Calm Calm - N/A   Overcast
6:55 AM 24.4 °F - 19.8 °F 82% 30.17 in 10.0 mi Calm Calm - N/A   Overcast
7:15 AM 25.2 °F - 19.4 °F 79% 30.18 in 10.0 mi Calm Calm - N/A   Overcast
7:35 AM 25.5 °F 21.3 °F 19.4 °F 78% 30.18 in 10.0 mi West 3.5 mph - N/A   Overcast
8:15 AM 26.2 °F 22.1 °F 19.9 °F 77% 30.19 in 10.0 mi West 3.5 mph - N/A   Overcast
8:35 AM 26.6 °F - 20.3 °F 77% 30.20 in 10.0 mi Calm Calm - N/A   Overcast
8:55 AM 27.1 °F 21.8 °F 20.5 °F 76% 30.21 in 10.0 mi West 4.6 mph - N/A   Overcast
9:15 AM 27.5 °F 22.2 °F 21.0 °F 77% 30.21 in 10.0 mi WNW 4.6 mph - N/A   Overcast
9:35 AM 28.0 °F 22.8 °F 20.8 °F 74% 30.23 in 10.0 mi WNW 4.6 mph - N/A   Overcast
9:55 AM 28.4 °F 23.3 °F 21.2 °F 74% 30.23 in 10.0 mi WNW 4.6 mph - N/A   Overcast
10:15 AM 29.1 °F 23.0 °F 21.7 °F 74% 30.23 in 10.0 mi NW 5.8 mph - N/A   Overcast
10:35 AM 28.9 °F 21.9 °F 21.2 °F 73% 30.23 in 10.0 mi NNW 6.9 mph - N/A   Overcast
10:55 AM 29.1 °F 23.0 °F 21.2 °F 72% 30.24 in 10.0 mi NW 5.8 mph - N/A   Overcast
11:15 AM 29.3 °F 24.3 °F 21.2 °F 72% 30.24 in 10.0 mi NW 4.6 mph - N/A   Overcast
11:35 AM 29.3 °F 22.3 °F 21.2 °F 72% 30.24 in 10.0 mi NNW 6.9 mph - N/A   Overcast
11:55 AM 29.5 °F 22.5 °F 20.8 °F 70% 30.24 in 10.0 mi WNW 6.9 mph - N/A   Overcast
12:15 PM 29.1 °F 20.0 °F 20.8 °F 71% 30.24 in 10.0 mi NNW 10.4 mph - N/A   Overcast
12:35 PM 28.8 °F 20.2 °F 18.5 °F 66% 30.25 in 10.0 mi NNW 9.2 mph - N/A   Overcast
12:55 PM 29.3 °F 20.8 °F 18.5 °F 64% 30.25 in 10.0 mi NW 9.2 mph - N/A   Overcast
1:15 PM 30.2 °F 21.9 °F 18.1 °F 61% 30.24 in 10.0 mi NW 9.2 mph - N/A   Mostly Cloudy
1:35 PM 30.9 °F 21.2 °F 17.2 °F 57% 30.24 in 10.0 mi NW 12.7 mph - N/A   Mostly Cloudy
1:55 PM 30.9 °F 21.7 °F 16.3 °F 55% 30.24 in 10.0 mi NW 11.5 mph 16.1 mph N/A   Scattered Clouds
2:15 PM 30.6 °F 21.8 °F 15.8 °F 54% 30.24 in 10.0 mi NW 10.4 mph - N/A   Clear
2:35 PM 30.0 °F 20.5 °F 14.5 °F 53% 30.25 in 10.0 mi NW 11.5 mph - N/A   Scattered Clouds
2:55 PM 28.9 °F 19.8 °F 13.1 °F 52% 30.26 in 10.0 mi WNW 10.4 mph - N/A   Clear
3:15 PM 29.3 °F 20.8 °F 11.8 °F 48% 30.26 in 10.0 mi WNW 9.2 mph - N/A   Clear
3:35 PM 28.8 °F 20.2 °F 9.9 °F 45% 30.26 in 10.0 mi NW 9.2 mph - N/A   Clear
3:55 PM 27.5 °F 17.4 °F 9.5 °F 47% 30.27 in 10.0 mi NW 11.5 mph - N/A   Clear
4:15 PM 26.4 °F 17.3 °F 9.1 °F 48% 30.27 in 10.0 mi NW 9.2 mph - N/A   Clear
4:35 PM 25.7 °F 17.1 °F 8.8 °F 49% 30.28 in 10.0 mi NW 8.1 mph - N/A   Clear
5:15 PM 24.4 °F 15.6 °F 9.0 °F 52% 30.29 in 10.0 mi NW 8.1 mph - N/A   Clear
5:35 PM 23.7 °F 14.7 °F 8.6 °F 53% 30.30 in 10.0 mi NW 8.1 mph - N/A   Clear
5:55 PM 23.0 °F 15.8 °F 8.6 °F 54% 30.31 in 10.0 mi NW 5.8 mph - N/A   Clear
6:15 PM 22.6 °F 15.3 °F 8.6 °F 55% 30.31 in 10.0 mi NW 5.8 mph - N/A   Clear
6:35 PM 21.9 °F 15.7 °F 8.6 °F 57% 30.33 in 10.0 mi WNW 4.6 mph - N/A   Clear
6:55 PM 22.1 °F 13.7 °F 8.4 °F 56% 30.33 in 10.0 mi NW 6.9 mph - N/A   Clear
7:15 PM 21.6 °F 13.0 °F 8.6 °F 57% 30.34 in 10.0 mi NW 6.9 mph - N/A   Clear
7:35 PM 21.0 °F 14.6 °F 8.6 °F 59% 30.34 in 10.0 mi NW 4.6 mph - N/A   Clear
7:55 PM 20.3 °F 13.8 °F 8.4 °F 60% 30.35 in 10.0 mi WNW 4.6 mph - N/A   Clear
8:15 PM 19.2 °F 11.3 °F 8.2 °F 62% 30.34 in 10.0 mi NW 5.8 mph - N/A   Clear
8:35 PM 18.9 °F 12.1 °F 8.2 °F 63% 30.34 in 10.0 mi NW 4.6 mph - N/A   Clear
8:55 PM 18.5 °F 13.3 °F 8.1 °F 64% 30.35 in 10.0 mi NW 3.5 mph - N/A   Clear
9:15 PM 18.7 °F - 8.2 °F 64% 30.35 in 10.0 mi Calm Calm - N/A   Clear
9:35 PM 18.9 °F - 8.4 °F 64% 30.35 in 10.0 mi Calm Calm - N/A   Clear
9:55 PM 18.3 °F 13.1 °F 8.1 °F 64% 30.35 in 10.0 mi WNW 3.5 mph - N/A   Clear
10:15 PM 18.0 °F - 7.7 °F 64% 30.35 in 10.0 mi Calm Calm - N/A   Clear
10:35 PM 17.4 °F 12.1 °F 7.7 °F 66% 30.35 in 10.0 mi WNW 3.5 mph - N/A   Clear
10:55 PM 17.4 °F - 7.7 °F 66% 30.35 in 10.0 mi Calm Calm - N/A   Clear
11:15 PM 16.7 °F - 7.5 °F 67% 30.35 in 10.0 mi Calm Calm - N/A   Clear
11:35 PM 16.2 °F - 7.0 °F 67% 30.36 in 10.0 mi Calm Calm - N/A   Clear
11:55 PM 14.0 °F - 7.0 °F 74% 30.35 in 10.0 mi Calm Calm - N/A   Clear